sat.trackr.live / text

‹ back to catalog

STARLINK-4191

NORAD 52860 · 2022-062AG

PAYLOAD ACTIVE UNKNOWN

§ Identity

Operator
Country
US
Launch date
2022-06-17
Launch site
AFETR
Launch vehicle
Mass (kg)
RCS (m²)

Purposes: comms

External: N2YO · Heavens-Above · Gunter

§ Orbital elements

Epoch: 2026-09-20T03:29:20.774112Z

Period
93.79 min
Inclination
53.1592°
Eccentricity
0.0001162
Mean motion
15.35393544 rev/d
Perigee alt
459.0 km
Apogee alt
460.5 km
Semi-major
6,837.9 km
B*
5.1666e-5
RAAN
219.0782°
Arg perigee
91.9095°
Mean anomaly
268.2041°
Rev number
23,544

§ Raw data

STARLINK-41911 52860U 22062AG  26263.14537933  .00001422  00000+0  51666-4 0  99932 52860  53.1592 219.0782 0001162  91.9095 268.2041 15.35393544235443

JSON: /api/v1/satellites/52860 · /tle

For live sub-satellite position, see the globe view (requires WebGL).

§ Visibility from observer

Set your observer location to see the next 7 days of passes ≥ 10°. The values pass through the URL so the page stays shareable.

No JS? Fill the form by hand. The geolocation button needs JavaScript.